User: anonymous   Login
Location: Unspecified
(0.0000°N, 0.0000°E)
Time: 20:46:49
(UTC+00:00)
Language:

TIGRISAT - Orbit

View from above orbital plane
View from above orbital plane
View from above satellite
View from above satellite

Ground track
Ground track

The orbit data is extracted from the following two-line orbital elements,

1 40043U 14033AK  24336.68906709  .00006702  00000-0  84768-3 0  9996
2 40043  97.7108 132.6073 0054214 116.7870 243.8904 14.81095504562238
Epoch (UTC): 01 December 2024 16:32:15
Eccentricity: 0.0054214
inclination: 97.7108°
perigee height: 588 km
apogee height: 664 km
right ascension of ascending node: 132.6073°
argument of perigee: 116.7870°
revolutions per day: 14.81095504
mean anomaly at epoch: 243.8904°
orbit number at epoch: 56223

The dashed part of the orbit path shows where the satellite is in the earth's shadow,  

DLR